Powrót do katalogu

STARLINK-37399

AktywnyŁącznośćSSO
NORAD 68772·PAYLOAD·🇺🇸 United States

Wystrzelony Apr 19, 2026 z Vandenberg Space Force Base

Loading…

Następne Przeloty (najbliższe 24 godziny)

TLE

ŚwieżeSource: CelesTrak SupGP

Epoka: Sep 15, 2026, 03:56 UTC

1 68772C 26086G   26258.16437500 -.00044236  00000+0 -13732-2 0  2587
2 68772  97.2841 293.6369 0001096  86.9127 329.8850 15.33462008    18

Śledź STARLINK-37399 w czasie rzeczywistym z AllMySat

Download on the App Store